When you browse on this site, cookies collect data to enhance your experience and personalize the content and advertising you see.
Visit our Privacy Policy to learn more. By continuing to use the site, you agree to this use of cookies and data.

Hourly Weather Punta Cana

Today, 25 September, Friday

Time Temperature Precipitation Wind Pressure Humidity
00:00 +28°C° 0 mm 3 mps 762 mmHg 86%
01:00 +28°C° 0 mm 3 mps 762 mmHg 86%
02:00 +28°C° 0.2 mm 3 mps 762 mmHg 86%
03:00 +28°C° 0.2 mm 3 mps 762 mmHg 87%
04:00 +28°C° 0.2 mm 3 mps 761 mmHg 87%
05:00 +29°C° 0 mm 3 mps 762 mmHg 84%
06:00 +29°C° 0 mm 3 mps 762 mmHg 82%
07:00 +30°C° 0 mm 4 mps 763 mmHg 80%
08:00 +32°C° 0 mm 4 mps 763 mmHg 75%
09:00 +33°C° 0 mm 4 mps 763 mmHg 70%
10:00 +34°C° 0 mm 4 mps 763 mmHg 66%
11:00 +34°C° 0 mm 4 mps 763 mmHg 65%
12:00 +34°C° 0 mm 4 mps 763 mmHg 65%
13:00 +34°C° 0 mm 4 mps 762 mmHg 64%
14:00 +34°C° 0 mm 4 mps 762 mmHg 67%
15:00 +33°C° 0 mm 4 mps 761 mmHg 71%
16:00 +32°C° 0 mm 4 mps 761 mmHg 74%
17:00 +30°C° 0 mm 4 mps 761 mmHg 78%
18:00 +30°C° 0 mm 4 mps 762 mmHg 82%
19:00 +29°C° 0 mm 4 mps 762 mmHg 86%
20:00 +29°C° 0.3 mm 4 mps 762 mmHg 87%
21:00 +28°C° 0.3 mm 4 mps 762 mmHg 88%
22:00 +28°C° 0.3 mm 4 mps 763 mmHg 88%
23:00 +28°C° 0.2 mm 4 mps 762 mmHg 89%

Tomorrow, 26 September, Saturday

Time Temperature Precipitation Wind Pressure Humidity
00:00 +28°C° 0.2 mm 4 mps 762 mmHg 89%
01:00 +28°C° 0.2 mm 4 mps 762 mmHg 90%
02:00 +28°C° 0 mm 4 mps 761 mmHg 90%
03:00 +28°C° 0 mm 4 mps 761 mmHg 90%
04:00 +28°C° 0 mm 4 mps 761 mmHg 90%
05:00 +28°C° 0 mm 4 mps 761 mmHg 87%
06:00 +29°C° 0 mm 5 mps 761 mmHg 85%
07:00 +30°C° 0 mm 5 mps 762 mmHg 82%
08:00 +32°C° 0 mm 5 mps 762 mmHg 78%
09:00 +33°C° 0 mm 5 mps 762 mmHg 74%
10:00 +33°C° 0 mm 5 mps 762 mmHg 69%
11:00 +33°C° 0.1 mm 5 mps 762 mmHg 69%
12:00 +34°C° 0.1 mm 5 mps 761 mmHg 69%
13:00 +34°C° 0.1 mm 5 mps 761 mmHg 69%
14:00 +33°C° 0.1 mm 5 mps 760 mmHg 71%
15:00 +33°C° 0.1 mm 5 mps 760 mmHg 73%
16:00 +32°C° 0.1 mm 6 mps 759 mmHg 76%
17:00 +30°C° 0 mm 6 mps 760 mmHg 79%
18:00 +29°C° 0 mm 5 mps 760 mmHg 82%
19:00 +28°C° 0 mm 5 mps 760 mmHg 86%
20:00 +28°C° 0.2 mm 5 mps 761 mmHg 86%
21:00 +28°C° 0.2 mm 5 mps 761 mmHg 87%
22:00 +28°C° 0.2 mm 5 mps 761 mmHg 87%
23:00 +28°C° 0.2 mm 5 mps 761 mmHg 87%

Day after tomorrow, 27 September, Sunday

Time Temperature Precipitation Wind Pressure Humidity
00:00 +28°C° 0.2 mm 5 mps 760 mmHg 87%
01:00 +28°C° 0.2 mm 5 mps 760 mmHg 87%
02:00 +28°C° 0.3 mm 5 mps 760 mmHg 88%
03:00 +27°C° 0.3 mm 5 mps 759 mmHg 89%
04:00 +27°C° 0.3 mm 5 mps 759 mmHg 89%
05:00 +28°C° 0.2 mm 5 mps 759 mmHg 86%
06:00 +29°C° 0.2 mm 5 mps 760 mmHg 83%
07:00 +30°C° 0.2 mm 5 mps 760 mmHg 80%
08:00 +30°C° 0.3 mm 5 mps 760 mmHg 77%
09:00 +32°C° 0.3 mm 5 mps 760 mmHg 74%
10:00 +33°C° 0.3 mm 5 mps 760 mmHg 71%
11:00 +33°C° 0.2 mm 5 mps 760 mmHg 70%
12:00 +33°C° 0.2 mm 5 mps 759 mmHg 70%
13:00 +33°C° 0.2 mm 5 mps 759 mmHg 70%
14:00 +33°C° 0.4 mm 5 mps 759 mmHg 72%
15:00 +32°C° 0.4 mm 5 mps 758 mmHg 73%
16:00 +32°C° 0.4 mm 5 mps 758 mmHg 75%
17:00 +30°C° 0.3 mm 6 mps 758 mmHg 77%
18:00 +29°C° 0.3 mm 6 mps 759 mmHg 80%
19:00 +29°C° 0.3 mm 6 mps 759 mmHg 82%
20:00 +29°C° 0.5 mm 6 mps 759 mmHg 82%
21:00 +29°C° 0.5 mm 6 mps 759 mmHg 82%
22:00 +29°C° 0.5 mm 5 mps 759 mmHg 82%
23:00 +28°C° 1.2 mm 5 mps 759 mmHg 85%

28 September, Monday

Time Temperature Precipitation Wind Pressure Humidity
00:00 +28°C° 1.2 mm 5 mps 758 mmHg 87%
01:00 +28°C° 1.2 mm 5 mps 758 mmHg 89%
02:00 +28°C° 1 mm 5 mps 758 mmHg 89%
03:00 +28°C° 1 mm 5 mps 758 mmHg 89%
04:00 +28°C° 1 mm 5 mps 758 mmHg 89%
05:00 +29°C° 0.1 mm 5 mps 758 mmHg 88%
06:00 +29°C° 0.1 mm 5 mps 758 mmHg 86%
07:00 +30°C° 0.1 mm 5 mps 759 mmHg 84%
08:00 +32°C° 0.1 mm 4 mps 759 mmHg 79%
09:00 +33°C° 0.1 mm 4 mps 759 mmHg 74%
10:00 +33°C° 0.1 mm 4 mps 760 mmHg 69%
11:00 +34°C° 0 mm 4 mps 759 mmHg 67%
12:00 +34°C° 0 mm 3 mps 759 mmHg 64%
13:00 +34°C° 0 mm 3 mps 758 mmHg 62%
14:00 +34°C° 0 mm 3 mps 758 mmHg 65%
15:00 +33°C° 0 mm 3 mps 758 mmHg 67%
16:00 +31°C° 0 mm 3 mps 758 mmHg 70%
17:00 +30°C° 0.2 mm 3 mps 758 mmHg 74%
18:00 +29°C° 0.2 mm 3 mps 758 mmHg 79%
19:00 +28°C° 0.2 mm 3 mps 759 mmHg 83%
20:00 +29°C° 0.2 mm 4 mps 759 mmHg 83%
21:00 +29°C° 0.2 mm 4 mps 759 mmHg 84%
22:00 +29°C° 0.2 mm 4 mps 760 mmHg 84%
23:00 +29°C° 0.7 mm 4 mps 759 mmHg 85%

29 September, Tuesday

Time Temperature Precipitation Wind Pressure Humidity
00:00 +29°C° 0.7 mm 5 mps 759 mmHg 85%
01:00 +28°C° 0.7 mm 5 mps 759 mmHg 86%
02:00 +28°C° 0.9 mm 4 mps 759 mmHg 87%
03:00 +28°C° 0.9 mm 4 mps 759 mmHg 88%
04:00 +28°C° 0.9 mm 3 mps 759 mmHg 89%
05:00 +28°C° 0.1 mm 3 mps 759 mmHg 87%
06:00 +29°C° 0.1 mm 4 mps 759 mmHg 85%
07:00 +30°C° 0.1 mm 4 mps 760 mmHg 83%
08:00 +32°C° 0.1 mm 4 mps 760 mmHg 79%
09:00 +32°C° 0.1 mm 5 mps 760 mmHg 74%
10:00 +33°C° 0.1 mm 5 mps 760 mmHg 70%
11:00 +33°C° 0.2 mm 5 mps 760 mmHg 71%
12:00 +33°C° 0.2 mm 5 mps 760 mmHg 72%
13:00 +33°C° 0.2 mm 5 mps 759 mmHg 73%
14:00 +33°C° 0.2 mm 5 mps 759 mmHg 74%
15:00 +32°C° 0.2 mm 5 mps 759 mmHg 76%
16:00 +32°C° 0.2 mm 5 mps 758 mmHg 78%
17:00 +30°C° 0.1 mm 4 mps 759 mmHg 79%
18:00 +30°C° 0.1 mm 4 mps 759 mmHg 81%
19:00 +29°C° 0.1 mm 3 mps 760 mmHg 83%
20:00 +29°C° 0.2 mm 4 mps 760 mmHg 84%
21:00 +29°C° 0.2 mm 4 mps 761 mmHg 85%
22:00 +29°C° 0.2 mm 4 mps 761 mmHg 86%
23:00 +29°C° 0.1 mm 4 mps 760 mmHg 86%

30 September, Wednesday

Time Temperature Precipitation Wind Pressure Humidity
00:00 +29°C° 0.1 mm 4 mps 760 mmHg 85%
01:00 +29°C° 0.1 mm 5 mps 760 mmHg 85%
02:00 +29°C° 0.3 mm 5 mps 760 mmHg 84%
03:00 +28°C° 0.3 mm 5 mps 760 mmHg 84%
04:00 +28°C° 0.3 mm 5 mps 760 mmHg 83%
05:00 +29°C° 0.2 mm 4 mps 760 mmHg 82%
06:00 +29°C° 0.2 mm 3 mps 761 mmHg 80%
07:00 +30°C° 0.2 mm 3 mps 761 mmHg 79%
08:00 +31°C° 0.3 mm 3 mps 761 mmHg 73%
09:00 +33°C° 0.3 mm 3 mps 762 mmHg 68%
10:00 +34°C° 0.3 mm 3 mps 762 mmHg 62%
11:00 +34°C° 0 mm 3 mps 761 mmHg 62%
12:00 +34°C° 0 mm 4 mps 761 mmHg 62%
13:00 +34°C° 0 mm 5 mps 760 mmHg 62%
14:00 +33°C° 0 mm 4 mps 760 mmHg 65%
15:00 +33°C° 0 mm 4 mps 760 mmHg 67%
16:00 +32°C° 0 mm 4 mps 759 mmHg 69%
17:00 +30°C° 0.1 mm 4 mps 760 mmHg 75%
18:00 +29°C° 0.1 mm 5 mps 760 mmHg 80%
19:00 +28°C° 0.1 mm 5 mps 761 mmHg 85%
20:00 +29°C° 0 mm 4 mps 761 mmHg 85%
21:00 +29°C° 0 mm 3 mps 761 mmHg 85%
22:00 +29°C° 0 mm 3 mps 761 mmHg 85%
23:00 +29°C° 0.6 mm 3 mps 761 mmHg 85%
Show more